Regional Weather Roundup
Issued by NWS

Home | Current Version | Previous Version | Text Only | Print | Product List | Glossary On
Versions: 1 2 3 4 5 6 7 8 9 10 11 12 13 14 15 16 17 18 19 20 21 22 23 24 25 26 27 28 29 30 31
000
ASUS44 KLIX 191413
RWRLA
LOUISIANA WEATHER ROUNDUP
NATIONAL WEATHER SERVICE NEW ORLEANS LA
800 AM CST FRI JAN 19 2018

NOTE: "FAIR" INDICATES FEW OR NO CLOUDS BELOW 12,000 FEET WITH NO
      SIGNIFICANT WEATHER AND/OR OBSTRUCTIONS TO VISIBILITY.
      SKY/WX - SKY CONDITION AND SIGNIFICANT WEATHER.
      TMP - AIR TEMPERATURE.    DP   - DEWPOINT TEMPERATURE.
      RH  - RELATIVE HUMIDITY.  PRES - PRESSURE.
      HX  - HEAT INDEX.         WCI  - WIND CHILL INDEX.

*  THESE STATIONS ARE NOT NWS OR FAA STATIONS AND ARE NOT UNDER
   NWS QUALITY CONTROL.

LAZ040-048-061>063-065-066-069-191500-
SOUTHEAST LOUISIANA

CITY           SKY/WX    TMP DP  RH WIND       PRES   REMARKS
N.O. INTL ARPT PTSUNNY   34  30  85 CALM      30.40R
N.O. LAKEFRONT FAIR      40  30  67 NE3       30.41R
N.O. DOWNTOWN* FAIR      39  32  76 N3        30.41R
RESERVE*       FAIR      32  28  86 E3        30.38S
SLIDELL        FAIR      30  26  85 CALM      30.39S
BATON ROUGE    FAIR      33  25  72 E6        30.37R WCI  28
BOOTHVILLE     FAIR      42  37  82 N6        30.39R
BELLE CHASSE   FAIR      34  33  96 CALM      30.39R
BOGALUSA*      FAIR      32  28  86 CALM      30.40S
GALLIANO*      FAIR      36  26  67 N3        30.39R
NEW ROADS*     PTSUNNY   32  29  87 CALM      30.39R
GONZALES*      PTSUNNY   33  26  75 E5        30.37S WCI  28
HAMMOND*       FAIR      32  28  86 CALM      30.39S
HOUMA*         SUNNY     34  27  75 NE9       30.37F WCI  26
PORT FOURCHON* SUNNY     39  30  70 NE9       30.38S WCI  33

$$

LAZ041-044-053-054-191500-
SOUTHWEST LOUISIANA

CITY           SKY/WX    TMP DP  RH WIND       PRES   REMARKS
LAKE CHARLES   CLOUDY    39  28  64 E7        30.34F WCI  34
LAFAYETTE      CLOUDY    35  26  69 E3        30.37R
PATTERSON      PTSUNNY   34  28  79 E3        30.39R
SALT POINT       N/A     33  26  75 E6        30.35F WCI  28
NEW IBERIA     CLOUDY    36  23  59 E8        30.37S WCI  30
CHENAULT AIRPK NOT AVBL

$$

LAZ027-028-191500-
CENTRAL LOUISIANA

CITY           SKY/WX    TMP DP  RH WIND       PRES   REMARKS
FORT POLK      CLOUDY    38  25  61 SE5       30.34S WCI  34
ALEXANDRIA INT CLOUDY    37  26  64 SE6       30.35S WCI  32
ALEXANDRIA     CLOUDY    35  28  75 CALM      30.36R

$$

LAZ001-002-191500-
NORTHWEST LOUISIANA

CITY           SKY/WX    TMP DP  RH WIND       PRES   REMARKS
SHREVEPORT     CLOUDY    39  21  48 S7        30.30F WCI  34
BARKSDALE AFB  CLOUDY    38  23  55 S7        30.31S WCI  32
DTN SHREVEPORT CLOUDY    40  21  46 S6        30.31S

$$

LAZ014-016-191500-
NORTHEAST LOUISIANA

CITY           SKY/WX    TMP DP  RH WIND       PRES   REMARKS
MONROE         CLOUDY    35  23  61 S3        30.35S
TALLULAH       CLOUDY    32  26  78 S3        30.37S

$$





USA.gov is the U.S. government's official web portal to all federal, state and local government web resources and services.